{"data":{"norad_id":54150,"intl_designator":"2022-139A","name":"GONETS-M 23","alt_names":[],"object_type":"PAYLOAD","status":"ACTIVE","operator":null,"country":"CIS","launch_date":"2022-10-22","launch_site_code":"VOSTO","launch_vehicle":null,"mission":null,"orbit_class":"UNKNOWN","rcs_meters":null,"size_class":null,"mass_kg":null,"dimensions":null,"purposes":[],"wikipedia_slug":null,"has_3d_model":false,"image_url":null,"decayed_at":null,"tle_current":{"epoch":"2026-05-25T03:50:36.896064Z","epoch_age_seconds":57739,"freshness":"FRESH","line1":"1 54150U 22139A   26145.16014926  .00000065  00000+0  39829-3 0  9993","line2":"2 54150  82.5083   2.6069 0020526 272.6237  87.2493 12.42889920162782","mean_motion":12.4288992,"eccentricity":0.0020526,"inclination_deg":82.5083,"raan_deg":2.6069,"arg_perigee_deg":272.6237,"mean_anomaly_deg":87.2493,"bstar":0.00039829,"rev_number":16278,"period_min":115.85901348367,"perigee_km":1478.2170780567,"apogee_km":1510.5353192398,"semimajor_km":7872.5131986482,"source":"CELESTRAK","updated_at":"2026-05-25T13:37:58.617760Z"}}}